User: anonymous   Login
Location: Owatonna
(44.0840°N, 93.2260°W)
Time: 23:20:25
(UTC-06:00)
Language:

Cosmos 839 Rocket - Orbit

View from above orbital plane
View from above orbital plane
View from above satellite
View from above satellite

Ground track
Ground track

The orbit data is extracted from the following two-line orbital elements,

1 09013U 76067B   15057.85219758 -.00000057  00000-0 -97460-5 0  9997
2 09013 065.8647 199.9784 0709121 042.0924 121.4541 12.35315249742724
Epoch (UTC): 26 February 2015 20:27:09
Eccentricity: 0.0709121
inclination: 65.8647°
perigee height: 966 km
apogee height: 2087 km
right ascension of ascending node: 199.9784°
argument of perigee: 42.0924°
revolutions per day: 12.35315249
mean anomaly at epoch: 121.4541°
orbit number at epoch: 74272

The dashed part of the orbit path shows where the satellite is in the earth's shadow,  

DLR